Location: Newark
(51.2625°N, 13.3939°E)
Time: 14:29:27
(UTC+00:00)

Courier 1B Rocket - All Passes

Search period start: 14 November 2019 00:00
Search period end: 24 November 2019 00:00
Orbit: 920 x 1202 km, 28.2° (Epoch: 13 November)

Date Brightness Start Highest point End Pass type
(mag) Time Alt. Az. Time Alt. Az. Time Alt. Az.
14 Nov - 17:47:58 10° SSW 17:50:24 12° S 17:52:50 10° SSE visible
15 Nov - 16:47:47 10° S 16:49:42 11° S 16:51:38 10° SSE visible
15 Nov - 18:40:24 10° SSW 18:41:41 10° S 18:42:59 10° S visible
16 Nov - 17:38:50 10° SSW 17:41:00 11° S 17:43:11 10° SSE visible
17 Nov - 16:38:09 10° SSW 16:40:18 11° S 16:42:29 10° SSE visible
18 Nov - 15:38:15 10° S 15:39:38 11° S 15:41:01 10° SSE daylight
18 Nov - 17:30:55 10° SSW 17:31:36 10° S 17:32:18 10° S visible
19 Nov - 16:29:15 10° SSW 16:30:55 11° S 16:32:36 10° S visible
20 Nov - 15:28:45 10° S 15:30:16 11° S 15:31:47 10° SSE daylight
